星链-37608(STARLINK-37608)

导读

STARLINK-37608(NORAD编号69037)是美国SpaceX公司星链(Starlink)卫星互联网星座的成员卫星,属于低地轨道通信卫星。星链项目计划部署近4.2万颗低轨卫星,旨在为全球提供高速低延迟互联网服务,重点覆盖地面基础设施难以抵达的偏远地区,同时也已应用于军事应急通信场景。该卫星在近地轨道运行,参与构建全球互联的低轨通信网络,不过星链大规模部署也引发了太空拥堵、天文观测干扰等争议,STARLINK-37608目前在轨运行,服务全球卫星互联网接入。

Basic Information
目录编号:
69037
目录名称:
STARLINK-37608
国际标识:
2026-101N
轨道中心:
EARTH
卫星名称:
星链-37608
卫星全名:
星链-37608(STARLINK-37608)
卫星状态:
在轨 (已飞行121 天)
发射日期:
2026-05-06 UTC
国别 :
美国 (US)
星等 :
--
Orbit Information
数据来源 国际轨道数据 AOE轨道数据
星历时间 2026-09-03T21:06:39+0800
16小时前
查看轨道信息
2026-09-03T23:00:00+0800
14小时前
查看轨道信息
半长轴 6843.669km 6843.694km
偏心率 0.0001958 0.0001684
轨道倾角 97.286° 97.284°
近地点辐角 95.435° 82.117°
升交点赤经 100.316° 100.392°
平近点角 264.711° 352.276°
近地点 464.192km 464.404km
远地点 466.872km 466.71km
周期 93.906分钟 93.906分钟
每日圈数 15.334488 15.334406
Detailed Information
固有亮度:
5
最大亮度:
2.5
卫星平台:
Starlink V1.0
覆盖范围:
全球
运营商:
太空探索技术公司
运营商所在国:
美国
制造商(研发单位):
太空探索技术公司
制造商所在国:
美国
使用方式:
暂无
Satellite Introduction
Starlink 计划是 SpaceX 推出的全球卫星互联网项目,通过发射低轨道卫星,为全球尤其是偏远地区提供高速、低延迟的互联网服务。自 2019 年起,Starlink 已部署数千颗卫星,旨在缩小全球数字鸿沟,推动互联网普及。该项目还为军事、航空等行业提供通信支持,带来广泛经济效益。
2D Orbit Map
3D Orbit Map
Orbit Altitude Analysis Chart
Orbit Inclination Analysis Chart
Orbit Comprehensive Analysis Chart
View Comprehensive Chart
Conjunction Data List
Event ID Objects TCA Miss Dist (km) Collision Risk Probability Collision Risk Index (CRI) Action
CDM_260903-122305-197206-903721
2026-09-03T
12:23:30+0000
2.960 km
极远距离
1.356626E-6 低风险 0.38
CDM_260904-004705-401106-903721
2026-09-04T
00:47:19+0000
2.768 km
极远距离
8.869106E-7 极低风险 0.34